owner,sensor,date,latitude,longitude,sea_surface_height_above_sea_level,qcFlag 
COMPS,ioos:station:USF.COMPS:ARP:1,2017-03-01T05:30:00Z,28.4330,-82.6670,-9.995,1111122 
COMPS,ioos:station:USF.COMPS:ARP:1,2017-03-01T05:36:00Z,28.4330,-82.6670,-9.955,1111122 
COMPS,ioos:station:USF.COMPS:ARP:1,2017-03-01T05:42:00Z,28.4330,-82.6670,-9.917,1111122 
COMPS,ioos:station:USF.COMPS:ARP:1,2017-03-01T05:48:00Z,28.4330,-82.6670,-9.883,1111122 
COMPS,ioos:station:USF.COMPS:ARP:1,2017-03-01T05:54:00Z,28.4330,-82.6670,-9.846,1111122 
COMPS,ioos:station:USF.COMPS:ARP:1,2017-03-01T06:00:00Z,28.4330,-82.6670,-9.813,1111122 
COMPS,ioos:station:USF.COMPS:ARP:1,2017-03-01T06:06:00Z,28.4330,-82.6670,-9.783,1111122 
COMPS,ioos:station:USF.COMPS:ARP:1,2017-03-01T06:12:00Z,28.4330,-82.6670,-9.752,1111122 
COMPS,ioos:station:USF.COMPS:ARP:1,2017-03-01T06:18:00Z,28.4330,-82.6670,-9.724,1111122 
COMPS,ioos:station:USF.COMPS:ARP:1,2017-03-01T06:24:00Z,28.4330,-82.6670,-9.694,1111122 
COMPS,ioos:station:USF.COMPS:ARP:1,2017-03-01T06:30:00Z,28.4330,-82.6670,-9.666,1111122 
COMPS,ioos:station:USF.COMPS:ARP:1,2017-03-01T06:36:00Z,28.4330,-82.6670,-9.641,1111122 
COMPS,ioos:station:USF.COMPS:ARP:1,2017-03-01T06:42:00Z,28.4330,-82.6670,-9.619,1111122 
COMPS,ioos:station:USF.COMPS:ARP:1,2017-03-01T06:48:00Z,28.4330,-82.6670,-9.594,1111122 
COMPS,ioos:station:USF.COMPS:ARP:1,2017-03-01T06:54:00Z,28.4330,-82.6670,-9.57,1111122 
COMPS,ioos:station:USF.COMPS:ARP:1,2017-03-01T07:00:00Z,28.4330,-82.6670,-9.551,1111122 
COMPS,ioos:station:USF.COMPS:ARP:1,2017-03-01T07:06:00Z,28.4330,-82.6670,-9.534,1111122 
COMPS,ioos:station:USF.COMPS:ARP:1,2017-03-01T07:12:00Z,28.4330,-82.6670,-9.52,1111122 
COMPS,ioos:station:USF.COMPS:ARP:1,2017-03-01T07:18:00Z,28.4330,-82.6670,-9.51,1111122 
COMPS,ioos:station:USF.COMPS:ARP:1,2017-03-01T07:24:00Z,28.4330,-82.6670,-9.499,1111122 
COMPS,ioos:station:USF.COMPS:ARP:1,2017-03-01T07:30:00Z,28.4330,-82.6670,-9.491,1111122 
COMPS,ioos:station:USF.COMPS:ARP:1,2017-03-01T07:36:00Z,28.4330,-82.6670,-9.484,1111122 
COMPS,ioos:station:USF.COMPS:ARP:1,2017-03-01T07:42:00Z,28.4330,-82.6670,-9.478,1111122 
COMPS,ioos:station:USF.COMPS:ARP:1,2017-03-01T07:48:00Z,28.4330,-82.6670,-9.475,1111122 
COMPS,ioos:station:USF.COMPS:ARP:1,2017-03-01T07:54:00Z,28.4330,-82.6670,-9.477,1111122 
COMPS,ioos:station:USF.COMPS:ARP:1,2017-03-01T08:00:00Z,28.4330,-82.6670,-9.48,1111122 
COMPS,ioos:station:USF.COMPS:ARP:1,2017-03-01T08:06:00Z,28.4330,-82.6670,-9.488,1111122 
COMPS,ioos:station:USF.COMPS:ARP:1,2017-03-01T08:12:00Z,28.4330,-82.6670,-9.498,1111122 
COMPS,ioos:station:USF.COMPS:ARP:1,2017-03-01T08:18:00Z,28.4330,-82.6670,-9.512,1111122 
COMPS,ioos:station:USF.COMPS:ARP:1,2017-03-01T08:24:00Z,28.4330,-82.6670,-9.528,1111122 
COMPS,ioos:station:USF.COMPS:ARP:1,2017-03-01T08:30:00Z,28.4330,-82.6670,-9.538,1111122 
COMPS,ioos:station:USF.COMPS:ARP:1,2017-03-01T08:36:00Z,28.4330,-82.6670,-9.556,1111122 
COMPS,ioos:station:USF.COMPS:ARP:1,2017-03-01T08:42:00Z,28.4330,-82.6670,-9.576,1111122 
COMPS,ioos:station:USF.COMPS:ARP:1,2017-03-01T08:48:00Z,28.4330,-82.6670,-9.602,1111122 
COMPS,ioos:station:USF.COMPS:ARP:1,2017-03-01T08:54:00Z,28.4330,-82.6670,-9.621,1111122 
COMPS,ioos:station:USF.COMPS:ARP:1,2017-03-01T09:00:00Z,28.4330,-82.6670,-9.637,1111122 
COMPS,ioos:station:USF.COMPS:ARP:1,2017-03-01T09:06:00Z,28.4330,-82.6670,-9.656,1111122 
COMPS,ioos:station:USF.COMPS:ARP:1,2017-03-01T09:12:00Z,28.4330,-82.6670,-9.675,1111122 
COMPS,ioos:station:USF.COMPS:ARP:1,2017-03-01T09:18:00Z,28.4330,-82.6670,-9.694,1111122 
COMPS,ioos:station:USF.COMPS:ARP:1,2017-03-01T09:24:00Z,28.4330,-82.6670,-9.712,1111122 
COMPS,ioos:station:USF.COMPS:ARP:1,2017-03-01T09:30:00Z,28.4330,-82.6670,-9.726,1111122 
COMPS,ioos:station:USF.COMPS:ARP:1,2017-03-01T09:36:00Z,28.4330,-82.6670,-9.743,1111122 
COMPS,ioos:station:USF.COMPS:ARP:1,2017-03-01T09:42:00Z,28.4330,-82.6670,-9.759,1111122 
COMPS,ioos:station:USF.COMPS:ARP:1,2017-03-01T09:48:00Z,28.4330,-82.6670,-9.776,1111122 
COMPS,ioos:station:USF.COMPS:ARP:1,2017-03-01T09:54:00Z,28.4330,-82.6670,-9.788,1111122 
COMPS,ioos:station:USF.COMPS:ARP:1,2017-03-01T10:00:00Z,28.4330,-82.6670,-9.804,1111122 
COMPS,ioos:station:USF.COMPS:ARP:1,2017-03-01T10:06:00Z,28.4330,-82.6670,-9.821,1111122 
COMPS,ioos:station:USF.COMPS:ARP:1,2017-03-01T10:12:00Z,28.4330,-82.6670,-9.837,1111122 
COMPS,ioos:station:USF.COMPS:ARP:1,2017-03-01T10:18:00Z,28.4330,-82.6670,-9.857,1111122 
COMPS,ioos:station:USF.COMPS:ARP:1,2017-03-01T10:24:00Z,28.4330,-82.6670,-9.876,1111122 
COMPS,ioos:station:USF.COMPS:ARP:1,2017-03-01T10:30:00Z,28.4330,-82.6670,-9.897,1111122 
COMPS,ioos:station:USF.COMPS:ARP:1,2017-03-01T10:36:00Z,28.4330,-82.6670,-9.915,1111122 
COMPS,ioos:station:USF.COMPS:ARP:1,2017-03-01T10:42:00Z,28.4330,-82.6670,-9.933,1111122 
COMPS,ioos:station:USF.COMPS:ARP:1,2017-03-01T10:48:00Z,28.4330,-82.6670,-9.953,1111122 
COMPS,ioos:station:USF.COMPS:ARP:1,2017-03-01T10:54:00Z,28.4330,-82.6670,-9.972,1111122 
COMPS,ioos:station:USF.COMPS:ARP:1,2017-03-01T11:00:00Z,28.4330,-82.6670,-9.99,1111122 
COMPS,ioos:station:USF.COMPS:ARP:1,2017-03-01T18:00:00Z,28.4330,-82.6670,-9.991,1111122 
COMPS,ioos:station:USF.COMPS:ARP:1,2017-03-01T18:06:00Z,28.4330,-82.6670,-9.951,1111122 
COMPS,ioos:station:USF.COMPS:ARP:1,2017-03-01T18:12:00Z,28.4330,-82.6670,-9.912,1111122 
COMPS,ioos:station:USF.COMPS:ARP:1,2017-03-01T18:18:00Z,28.4330,-82.6670,-9.876,1111122 
COMPS,ioos:station:USF.COMPS:ARP:1,2017-03-01T18:24:00Z,28.4330,-82.6670,-9.841,1111122 
COMPS,ioos:station:USF.COMPS:ARP:1,2017-03-01T18:30:00Z,28.4330,-82.6670,-9.808,1111122 
COMPS,ioos:station:USF.COMPS:ARP:1,2017-03-01T18:36:00Z,28.4330,-82.6670,-9.774,1111122 
COMPS,ioos:station:USF.COMPS:ARP:1,2017-03-01T18:42:00Z,28.4330,-82.6670,-9.743,1111122 
COMPS,ioos:station:USF.COMPS:ARP:1,2017-03-01T18:48:00Z,28.4330,-82.6670,-9.714,1111122 
COMPS,ioos:station:USF.COMPS:ARP:1,2017-03-01T18:54:00Z,28.4330,-82.6670,-9.683,1111122 
COMPS,ioos:station:USF.COMPS:ARP:1,2017-03-01T19:00:00Z,28.4330,-82.6670,-9.656,1111122 
COMPS,ioos:station:USF.COMPS:ARP:1,2017-03-01T19:06:00Z,28.4330,-82.6670,-9.63,1111122 
COMPS,ioos:station:USF.COMPS:ARP:1,2017-03-01T19:12:00Z,28.4330,-82.6670,-9.606,1111122 
COMPS,ioos:station:USF.COMPS:ARP:1,2017-03-01T19:18:00Z,28.4330,-82.6670,-9.579,1111122 
COMPS,ioos:station:USF.COMPS:ARP:1,2017-03-01T19:24:00Z,28.4330,-82.6670,-9.554,1111122 
COMPS,ioos:station:USF.COMPS:ARP:1,2017-03-01T19:30:00Z,28.4330,-82.6670,-9.537,1111122 
COMPS,ioos:station:USF.COMPS:ARP:1,2017-03-01T19:36:00Z,28.4330,-82.6670,-9.522,1111122 
COMPS,ioos:station:USF.COMPS:ARP:1,2017-03-01T19:42:00Z,28.4330,-82.6670,-9.507,1111122 
COMPS,ioos:station:USF.COMPS:ARP:1,2017-03-01T19:48:00Z,28.4330,-82.6670,-9.493,1111122 
COMPS,ioos:station:USF.COMPS:ARP:1,2017-03-01T19:54:00Z,28.4330,-82.6670,-9.479,1111122 
COMPS,ioos:station:USF.COMPS:ARP:1,2017-03-01T20:00:00Z,28.4330,-82.6670,-9.476,1111122 
COMPS,ioos:station:USF.COMPS:ARP:1,2017-03-01T20:06:00Z,28.4330,-82.6670,-9.471,1111122 
COMPS,ioos:station:USF.COMPS:ARP:1,2017-03-01T20:12:00Z,28.4330,-82.6670,-9.467,1111122 
COMPS,ioos:station:USF.COMPS:ARP:1,2017-03-01T20:18:00Z,28.4330,-82.6670,-9.468,1111122 
COMPS,ioos:station:USF.COMPS:ARP:1,2017-03-01T20:24:00Z,28.4330,-82.6670,-9.48,1111122 
COMPS,ioos:station:USF.COMPS:ARP:1,2017-03-01T20:30:00Z,28.4330,-82.6670,-9.492,1111122 
COMPS,ioos:station:USF.COMPS:ARP:1,2017-03-01T20:36:00Z,28.4330,-82.6670,-9.505,1111122 
COMPS,ioos:station:USF.COMPS:ARP:1,2017-03-01T20:42:00Z,28.4330,-82.6670,-9.524,1111122 
COMPS,ioos:station:USF.COMPS:ARP:1,2017-03-01T20:48:00Z,28.4330,-82.6670,-9.539,1111122 
COMPS,ioos:station:USF.COMPS:ARP:1,2017-03-01T20:54:00Z,28.4330,-82.6670,-9.553,1111122 
COMPS,ioos:station:USF.COMPS:ARP:1,2017-03-01T21:00:00Z,28.4330,-82.6670,-9.574,1111122 
COMPS,ioos:station:USF.COMPS:ARP:1,2017-03-01T21:06:00Z,28.4330,-82.6670,-9.59,1111122 
COMPS,ioos:station:USF.COMPS:ARP:1,2017-03-01T21:12:00Z,28.4330,-82.6670,-9.608,1111122 
COMPS,ioos:station:USF.COMPS:ARP:1,2017-03-01T21:18:00Z,28.4330,-82.6670,-9.623,1111122 
COMPS,ioos:station:USF.COMPS:ARP:1,2017-03-01T21:24:00Z,28.4330,-82.6670,-9.641,1111122 
COMPS,ioos:station:USF.COMPS:ARP:1,2017-03-01T21:30:00Z,28.4330,-82.6670,-9.652,1111122 
COMPS,ioos:station:USF.COMPS:ARP:1,2017-03-01T21:36:00Z,28.4330,-82.6670,-9.666,1111122 
COMPS,ioos:station:USF.COMPS:ARP:1,2017-03-01T21:42:00Z,28.4330,-82.6670,-9.681,1111122 
COMPS,ioos:station:USF.COMPS:ARP:1,2017-03-01T21:48:00Z,28.4330,-82.6670,-9.7,1111122 
COMPS,ioos:station:USF.COMPS:ARP:1,2017-03-01T21:54:00Z,28.4330,-82.6670,-9.721,1111122 
COMPS,ioos:station:USF.COMPS:ARP:1,2017-03-01T22:00:00Z,28.4330,-82.6670,-9.737,1111122 
COMPS,ioos:station:USF.COMPS:ARP:1,2017-03-01T22:06:00Z,28.4330,-82.6670,-9.751,1111122 
COMPS,ioos:station:USF.COMPS:ARP:1,2017-03-01T22:12:00Z,28.4330,-82.6670,-9.765,1111122 
COMPS,ioos:station:USF.COMPS:ARP:1,2017-03-01T22:18:00Z,28.4330,-82.6670,-9.785,1111122 
COMPS,ioos:station:USF.COMPS:ARP:1,2017-03-01T22:24:00Z,28.4330,-82.6670,-9.803,1111122 
COMPS,ioos:station:USF.COMPS:ARP:1,2017-03-01T22:30:00Z,28.4330,-82.6670,-9.823,1111122 
COMPS,ioos:station:USF.COMPS:ARP:1,2017-03-01T22:36:00Z,28.4330,-82.6670,-9.842,1111122 
COMPS,ioos:station:USF.COMPS:ARP:1,2017-03-01T22:42:00Z,28.4330,-82.6670,-9.862,1111122 
COMPS,ioos:station:USF.COMPS:ARP:1,2017-03-01T22:48:00Z,28.4330,-82.6670,-9.884,1111122 
COMPS,ioos:station:USF.COMPS:ARP:1,2017-03-01T22:54:00Z,28.4330,-82.6670,-9.906,1111122 
COMPS,ioos:station:USF.COMPS:ARP:1,2017-03-01T23:00:00Z,28.4330,-82.6670,-9.925,1111122 
COMPS,ioos:station:USF.COMPS:ARP:1,2017-03-01T23:06:00Z,28.4330,-82.6670,-9.941,1111122 
COMPS,ioos:station:USF.COMPS:ARP:1,2017-03-01T23:12:00Z,28.4330,-82.6670,-9.958,1111122 
COMPS,ioos:station:USF.COMPS:ARP:1,2017-03-01T23:18:00Z,28.4330,-82.6670,-9.976,1111122 
COMPS,ioos:station:USF.COMPS:ARP:1,2017-03-01T23:24:00Z,28.4330,-82.6670,-9.993,1111122 
COMPS,ioos:station:USF.COMPS:ARP:1,2017-03-02T06:18:00Z,28.4330,-82.6670,-9.992,1111122 
COMPS,ioos:station:USF.COMPS:ARP:1,2017-03-02T06:24:00Z,28.4330,-82.6670,-9.953,1111122 
COMPS,ioos:station:USF.COMPS:ARP:1,2017-03-02T06:30:00Z,28.4330,-82.6670,-9.917,1111122 
COMPS,ioos:station:USF.COMPS:ARP:1,2017-03-02T06:36:00Z,28.4330,-82.6670,-9.887,1111122 
COMPS,ioos:station:USF.COMPS:ARP:1,2017-03-02T06:42:00Z,28.4330,-82.6670,-9.853,1111122 
COMPS,ioos:station:USF.COMPS:ARP:1,2017-03-02T06:48:00Z,28.4330,-82.6670,-9.823,1111122 
COMPS,ioos:station:USF.COMPS:ARP:1,2017-03-02T06:54:00Z,28.4330,-82.6670,-9.796,1111122 
COMPS,ioos:station:USF.COMPS:ARP:1,2017-03-02T07:00:00Z,28.4330,-82.6670,-9.773,1111122 
COMPS,ioos:station:USF.COMPS:ARP:1,2017-03-02T07:06:00Z,28.4330,-82.6670,-9.748,1111122 
COMPS,ioos:station:USF.COMPS:ARP:1,2017-03-02T07:12:00Z,28.4330,-82.6670,-9.726,1111122 
COMPS,ioos:station:USF.COMPS:ARP:1,2017-03-02T07:18:00Z,28.4330,-82.6670,-9.703,1111122 
COMPS,ioos:station:USF.COMPS:ARP:1,2017-03-02T07:24:00Z,28.4330,-82.6670,-9.68,1111122 
COMPS,ioos:station:USF.COMPS:ARP:1,2017-03-02T07:30:00Z,28.4330,-82.6670,-9.662,1111122 
COMPS,ioos:station:USF.COMPS:ARP:1,2017-03-02T07:36:00Z,28.4330,-82.6670,-9.643,1111122 
COMPS,ioos:station:USF.COMPS:ARP:1,2017-03-02T07:42:00Z,28.4330,-82.6670,-9.63,1111122 
COMPS,ioos:station:USF.COMPS:ARP:1,2017-03-02T07:48:00Z,28.4330,-82.6670,-9.613,1111122 
COMPS,ioos:station:USF.COMPS:ARP:1,2017-03-02T07:54:00Z,28.4330,-82.6670,-9.602,1111122 
COMPS,ioos:station:USF.COMPS:ARP:1,2017-03-02T08:00:00Z,28.4330,-82.6670,-9.592,1111122 
COMPS,ioos:station:USF.COMPS:ARP:1,2017-03-02T08:06:00Z,28.4330,-82.6670,-9.58,1111122 
COMPS,ioos:station:USF.COMPS:ARP:1,2017-03-02T08:12:00Z,28.4330,-82.6670,-9.572,1111122 
COMPS,ioos:station:USF.COMPS:ARP:1,2017-03-02T08:18:00Z,28.4330,-82.6670,-9.566,1111122 
COMPS,ioos:station:USF.COMPS:ARP:1,2017-03-02T08:24:00Z,28.4330,-82.6670,-9.557,1111122 
COMPS,ioos:station:USF.COMPS:ARP:1,2017-03-02T08:30:00Z,28.4330,-82.6670,-9.555,1111122 
COMPS,ioos:station:USF.COMPS:ARP:1,2017-03-02T08:36:00Z,28.4330,-82.6670,-9.556,1111122 
COMPS,ioos:station:USF.COMPS:ARP:1,2017-03-02T08:42:00Z,28.4330,-82.6670,-9.56,1111122 
COMPS,ioos:station:USF.COMPS:ARP:1,2017-03-02T08:48:00Z,28.4330,-82.6670,-9.569,1111122 
COMPS,ioos:station:USF.COMPS:ARP:1,2017-03-02T08:54:00Z,28.4330,-82.6670,-9.575,1111122 
COMPS,ioos:station:USF.COMPS:ARP:1,2017-03-02T09:00:00Z,28.4330,-82.6670,-9.577,1111122 
COMPS,ioos:station:USF.COMPS:ARP:1,2017-03-02T09:06:00Z,28.4330,-82.6670,-9.601,1111122 
COMPS,ioos:station:USF.COMPS:ARP:1,2017-03-02T09:12:00Z,28.4330,-82.6670,-9.605,1111122 
COMPS,ioos:station:USF.COMPS:ARP:1,2017-03-02T09:18:00Z,28.4330,-82.6670,-9.624,1111122 
COMPS,ioos:station:USF.COMPS:ARP:1,2017-03-02T09:24:00Z,28.4330,-82.6670,-9.641,1111122 
COMPS,ioos:station:USF.COMPS:ARP:1,2017-03-02T09:30:00Z,28.4330,-82.6670,-9.654,1111122 
COMPS,ioos:station:USF.COMPS:ARP:1,2017-03-02T09:36:00Z,28.4330,-82.6670,-9.678,1111122 
COMPS,ioos:station:USF.COMPS:ARP:1,2017-03-02T09:42:00Z,28.4330,-82.6670,-9.695,1111122 
COMPS,ioos:station:USF.COMPS:ARP:1,2017-03-02T09:48:00Z,28.4330,-82.6670,-9.704,1111122 
COMPS,ioos:station:USF.COMPS:ARP:1,2017-03-02T09:54:00Z,28.4330,-82.6670,-9.672,1111122 
COMPS,ioos:station:USF.COMPS:ARP:1,2017-03-02T10:00:00Z,28.4330,-82.6670,-9.699,1111122 
COMPS,ioos:station:USF.COMPS:ARP:1,2017-03-02T10:06:00Z,28.4330,-82.6670,-9.706,1111122 
COMPS,ioos:station:USF.COMPS:ARP:1,2017-03-02T10:12:00Z,28.4330,-82.6670,-9.705,1111122 
COMPS,ioos:station:USF.COMPS:ARP:1,2017-03-02T10:18:00Z,28.4330,-82.6670,-9.723,1111122 
COMPS,ioos:station:USF.COMPS:ARP:1,2017-03-02T10:24:00Z,28.4330,-82.6670,-9.739,1111122 
COMPS,ioos:station:USF.COMPS:ARP:1,2017-03-02T10:30:00Z,28.4330,-82.6670,-9.757,1111122 
COMPS,ioos:station:USF.COMPS:ARP:1,2017-03-02T10:36:00Z,28.4330,-82.6670,-9.777,1111122 
COMPS,ioos:station:USF.COMPS:ARP:1,2017-03-02T10:42:00Z,28.4330,-82.6670,-9.792,1111122 
COMPS,ioos:station:USF.COMPS:ARP:1,2017-03-02T10:48:00Z,28.4330,-82.6670,-9.811,1111122 
COMPS,ioos:station:USF.COMPS:ARP:1,2017-03-02T10:54:00Z,28.4330,-82.6670,-9.824,1111122 
COMPS,ioos:station:USF.COMPS:ARP:1,2017-03-02T11:00:00Z,28.4330,-82.6670,-9.844,1111122 
COMPS,ioos:station:USF.COMPS:ARP:1,2017-03-02T11:06:00Z,28.4330,-82.6670,-9.857,1111122 
COMPS,ioos:station:USF.COMPS:ARP:1,2017-03-02T11:12:00Z,28.4330,-82.6670,-9.872,1111122 
COMPS,ioos:station:USF.COMPS:ARP:1,2017-03-02T11:18:00Z,28.4330,-82.6670,-9.887,1111122 
COMPS,ioos:station:USF.COMPS:ARP:1,2017-03-02T11:24:00Z,28.4330,-82.6670,-9.904,1111122 
COMPS,ioos:station:USF.COMPS:ARP:1,2017-03-02T11:30:00Z,28.4330,-82.6670,-9.922,1111122 
COMPS,ioos:station:USF.COMPS:ARP:1,2017-03-02T11:36:00Z,28.4330,-82.6670,-9.936,1111122 
COMPS,ioos:station:USF.COMPS:ARP:1,2017-03-02T11:42:00Z,28.4330,-82.6670,-9.953,1111122 
COMPS,ioos:station:USF.COMPS:ARP:1,2017-03-02T11:48:00Z,28.4330,-82.6670,-9.97,1111122 
COMPS,ioos:station:USF.COMPS:ARP:1,2017-03-02T11:54:00Z,28.4330,-82.6670,-9.987,1111122 
COMPS,ioos:station:USF.COMPS:ARP:1,2017-03-02T17:54:00Z,28.4330,-82.6670,-9.997,1111122 
COMPS,ioos:station:USF.COMPS:ARP:1,2017-03-02T18:00:00Z,28.4330,-82.6670,-9.974,1111122 
COMPS,ioos:station:USF.COMPS:ARP:1,2017-03-02T18:06:00Z,28.4330,-82.6670,-9.95,1111122 
COMPS,ioos:station:USF.COMPS:ARP:1,2017-03-02T18:12:00Z,28.4330,-82.6670,-9.929,1111122 
COMPS,ioos:station:USF.COMPS:ARP:1,2017-03-02T18:18:00Z,28.4330,-82.6670,-9.908,1111122 
COMPS,ioos:station:USF.COMPS:ARP:1,2017-03-02T18:24:00Z,28.4330,-82.6670,-9.888,1111122 
COMPS,ioos:station:USF.COMPS:ARP:1,2017-03-02T18:30:00Z,28.4330,-82.6670,-9.867,1111122 
COMPS,ioos:station:USF.COMPS:ARP:1,2017-03-02T18:36:00Z,28.4330,-82.6670,-9.843,1111122 
COMPS,ioos:station:USF.COMPS:ARP:1,2017-03-02T18:42:00Z,28.4330,-82.6670,-9.822,1111122 
COMPS,ioos:station:USF.COMPS:ARP:1,2017-03-02T18:48:00Z,28.4330,-82.6670,-9.802,1111122 
COMPS,ioos:station:USF.COMPS:ARP:1,2017-03-02T18:54:00Z,28.4330,-82.6670,-9.782,1111122 
COMPS,ioos:station:USF.COMPS:ARP:1,2017-03-02T19:00:00Z,28.4330,-82.6670,-9.762,1111122 
COMPS,ioos:station:USF.COMPS:ARP:1,2017-03-02T19:06:00Z,28.4330,-82.6670,-9.741,1111122 
COMPS,ioos:station:USF.COMPS:ARP:1,2017-03-02T19:12:00Z,28.4330,-82.6670,-9.723,1111122 
COMPS,ioos:station:USF.COMPS:ARP:1,2017-03-02T19:18:00Z,28.4330,-82.6670,-9.704,1111122 
COMPS,ioos:station:USF.COMPS:ARP:1,2017-03-02T19:24:00Z,28.4330,-82.6670,-9.68,1111122 
COMPS,ioos:station:USF.COMPS:ARP:1,2017-03-02T19:30:00Z,28.4330,-82.6670,-9.661,1111122 
COMPS,ioos:station:USF.COMPS:ARP:1,2017-03-02T19:36:00Z,28.4330,-82.6670,-9.642,1111122 
COMPS,ioos:station:USF.COMPS:ARP:1,2017-03-02T19:42:00Z,28.4330,-82.6670,-9.619,1111122 
COMPS,ioos:station:USF.COMPS:ARP:1,2017-03-02T19:48:00Z,28.4330,-82.6670,-9.602,1111122 
COMPS,ioos:station:USF.COMPS:ARP:1,2017-03-02T19:54:00Z,28.4330,-82.6670,-9.584,1111122 
COMPS,ioos:station:USF.COMPS:ARP:1,2017-03-02T20:00:00Z,28.4330,-82.6670,-9.564,1111122 
COMPS,ioos:station:USF.COMPS:ARP:1,2017-03-02T20:06:00Z,28.4330,-82.6670,-9.552,1111122 
COMPS,ioos:station:USF.COMPS:ARP:1,2017-03-02T20:12:00Z,28.4330,-82.6670,-9.54,1111122 
COMPS,ioos:station:USF.COMPS:ARP:1,2017-03-02T20:18:00Z,28.4330,-82.6670,-9.529,1111122 
COMPS,ioos:station:USF.COMPS:ARP:1,2017-03-02T20:24:00Z,28.4330,-82.6670,-9.516,1111122 
COMPS,ioos:station:USF.COMPS:ARP:1,2017-03-02T20:30:00Z,28.4330,-82.6670,-9.512,1111122 
COMPS,ioos:station:USF.COMPS:ARP:1,2017-03-02T20:36:00Z,28.4330,-82.6670,-9.507,1111122 
COMPS,ioos:station:USF.COMPS:ARP:1,2017-03-02T20:42:00Z,28.4330,-82.6670,-9.495,1111122 
COMPS,ioos:station:USF.COMPS:ARP:1,2017-03-02T20:48:00Z,28.4330,-82.6670,-9.492,1111122 
COMPS,ioos:station:USF.COMPS:ARP:1,2017-03-02T20:54:00Z,28.4330,-82.6670,-9.49,1111122 
COMPS,ioos:station:USF.COMPS:ARP:1,2017-03-02T21:00:00Z,28.4330,-82.6670,-9.487,1111122 
COMPS,ioos:station:USF.COMPS:ARP:1,2017-03-02T21:06:00Z,28.4330,-82.6670,-9.498,1111122 
COMPS,ioos:station:USF.COMPS:ARP:1,2017-03-02T21:12:00Z,28.4330,-82.6670,-9.493,1111122 
COMPS,ioos:station:USF.COMPS:ARP:1,2017-03-02T21:18:00Z,28.4330,-82.6670,-9.502,1111122 
COMPS,ioos:station:USF.COMPS:ARP:1,2017-03-02T21:24:00Z,28.4330,-82.6670,-9.514,1111122 
COMPS,ioos:station:USF.COMPS:ARP:1,2017-03-02T21:30:00Z,28.4330,-82.6670,-9.524,1111122 
COMPS,ioos:station:USF.COMPS:ARP:1,2017-03-02T21:36:00Z,28.4330,-82.6670,-9.531,1111122 
COMPS,ioos:station:USF.COMPS:ARP:1,2017-03-02T21:42:00Z,28.4330,-82.6670,-9.545,1111122 
COMPS,ioos:station:USF.COMPS:ARP:1,2017-03-02T21:48:00Z,28.4330,-82.6670,-9.554,1111122 
COMPS,ioos:station:USF.COMPS:ARP:1,2017-03-02T21:54:00Z,28.4330,-82.6670,-9.571,1111122 
COMPS,ioos:station:USF.COMPS:ARP:1,2017-03-02T22:00:00Z,28.4330,-82.6670,-9.581,1111122 
COMPS,ioos:station:USF.COMPS:ARP:1,2017-03-02T22:06:00Z,28.4330,-82.6670,-9.588,1111122 
COMPS,ioos:station:USF.COMPS:ARP:1,2017-03-02T22:12:00Z,28.4330,-82.6670,-9.594,1111122 
COMPS,ioos:station:USF.COMPS:ARP:1,2017-03-02T22:18:00Z,28.4330,-82.6670,-9.606,1111122 
COMPS,ioos:station:USF.COMPS:ARP:1,2017-03-02T22:24:00Z,28.4330,-82.6670,-9.613,1111122 
COMPS,ioos:station:USF.COMPS:ARP:1,2017-03-02T22:30:00Z,28.4330,-82.6670,-9.627,1111122 
COMPS,ioos:station:USF.COMPS:ARP:1,2017-03-02T22:36:00Z,28.4330,-82.6670,-9.641,1111122 
COMPS,ioos:station:USF.COMPS:ARP:1,2017-03-02T22:42:00Z,28.4330,-82.6670,-9.65,1111122 
COMPS,ioos:station:USF.COMPS:ARP:1,2017-03-02T22:48:00Z,28.4330,-82.6670,-9.658,1111122 
COMPS,ioos:station:USF.COMPS:ARP:1,2017-03-02T22:54:00Z,28.4330,-82.6670,-9.671,1111122 
COMPS,ioos:station:USF.COMPS:ARP:1,2017-03-02T23:00:00Z,28.4330,-82.6670,-9.688,1111122 
COMPS,ioos:station:USF.COMPS:ARP:1,2017-03-02T23:06:00Z,28.4330,-82.6670,-9.709,1111122 
COMPS,ioos:station:USF.COMPS:ARP:1,2017-03-02T23:12:00Z,28.4330,-82.6670,-9.729,1111122 
COMPS,ioos:station:USF.COMPS:ARP:1,2017-03-02T23:18:00Z,28.4330,-82.6670,-9.748,1111122 
COMPS,ioos:station:USF.COMPS:ARP:1,2017-03-02T23:24:00Z,28.4330,-82.6670,-9.771,1111122 
COMPS,ioos:station:USF.COMPS:ARP:1,2017-03-02T23:30:00Z,28.4330,-82.6670,-9.791,1111122 
COMPS,ioos:station:USF.COMPS:ARP:1,2017-03-02T23:36:00Z,28.4330,-82.6670,-9.814,1111122 
COMPS,ioos:station:USF.COMPS:ARP:1,2017-03-02T23:42:00Z,28.4330,-82.6670,-9.836,1111122 
COMPS,ioos:station:USF.COMPS:ARP:1,2017-03-02T23:48:00Z,28.4330,-82.6670,-9.862,1111122 
COMPS,ioos:station:USF.COMPS:ARP:1,2017-03-02T23:54:00Z,28.4330,-82.6670,-9.89,1111122 
COMPS,ioos:station:USF.COMPS:ARP:1,2017-03-03T00:00:00Z,28.4330,-82.6670,-9.913,1111122 
COMPS,ioos:station:USF.COMPS:ARP:1,2017-03-03T00:06:00Z,28.4330,-82.6670,-9.936,1111122 
COMPS,ioos:station:USF.COMPS:ARP:1,2017-03-03T00:12:00Z,28.4330,-82.6670,-9.962,1111122 
COMPS,ioos:station:USF.COMPS:ARP:1,2017-03-03T00:18:00Z,28.4330,-82.6670,-9.987,1111122 
COMPS,ioos:station:USF.COMPS:ARP:1,2017-03-03T21:06:00Z,28.4330,-82.6670,-9.981,1111122 
COMPS,ioos:station:USF.COMPS:ARP:1,2017-03-03T21:12:00Z,28.4330,-82.6670,-9.962,1111122 
COMPS,ioos:station:USF.COMPS:ARP:1,2017-03-03T21:18:00Z,28.4330,-82.6670,-9.945,1111122 
COMPS,ioos:station:USF.COMPS:ARP:1,2017-03-03T21:24:00Z,28.4330,-82.6670,-9.927,1111122 
COMPS,ioos:station:USF.COMPS:ARP:1,2017-03-03T21:30:00Z,28.4330,-82.6670,-9.917,1111122 
COMPS,ioos:station:USF.COMPS:ARP:1,2017-03-03T21:36:00Z,28.4330,-82.6670,-9.916,1111122 
COMPS,ioos:station:USF.COMPS:ARP:1,2017-03-03T21:42:00Z,28.4330,-82.6670,-9.922,1111122 
COMPS,ioos:station:USF.COMPS:ARP:1,2017-03-03T21:48:00Z,28.4330,-82.6670,-9.933,1111122 
COMPS,ioos:station:USF.COMPS:ARP:1,2017-03-03T21:54:00Z,28.4330,-82.6670,-9.951,1111122 
COMPS,ioos:station:USF.COMPS:ARP:1,2017-03-03T22:00:00Z,28.4330,-82.6670,-9.964,1111122 
COMPS,ioos:station:USF.COMPS:ARP:1,2017-03-03T22:06:00Z,28.4330,-82.6670,-9.975,1111122 
COMPS,ioos:station:USF.COMPS:ARP:1,2017-03-03T22:12:00Z,28.4330,-82.6670,-9.992,1111122 
COMPS,ioos:station:USF.COMPS:ARP:1,2017-03-04T20:48:00Z,28.4330,-82.6670,-9.995,1111122 
COMPS,ioos:station:USF.COMPS:ARP:1,2017-03-04T20:54:00Z,28.4330,-82.6670,-9.972,1111122 
COMPS,ioos:station:USF.COMPS:ARP:1,2017-03-04T21:00:00Z,28.4330,-82.6670,-9.951,1111122 
COMPS,ioos:station:USF.COMPS:ARP:1,2017-03-04T21:06:00Z,28.4330,-82.6670,-9.93,1111122 
COMPS,ioos:station:USF.COMPS:ARP:1,2017-03-04T21:12:00Z,28.4330,-82.6670,-9.914,1111122 
COMPS,ioos:station:USF.COMPS:ARP:1,2017-03-04T21:18:00Z,28.4330,-82.6670,-9.904,1111122 
COMPS,ioos:station:USF.COMPS:ARP:1,2017-03-04T21:24:00Z,28.4330,-82.6670,-9.891,1111122 
COMPS,ioos:station:USF.COMPS:ARP:1,2017-03-04T21:30:00Z,28.4330,-82.6670,-9.885,1111122 
COMPS,ioos:station:USF.COMPS:ARP:1,2017-03-04T21:36:00Z,28.4330,-82.6670,-9.879,1111122 
COMPS,ioos:station:USF.COMPS:ARP:1,2017-03-04T21:42:00Z,28.4330,-82.6670,-9.874,1111122 
COMPS,ioos:station:USF.COMPS:ARP:1,2017-03-04T21:48:00Z,28.4330,-82.6670,-9.873,1111122 
COMPS,ioos:station:USF.COMPS:ARP:1,2017-03-04T21:54:00Z,28.4330,-82.6670,-9.875,1111122 
COMPS,ioos:station:USF.COMPS:ARP:1,2017-03-04T22:00:00Z,28.4330,-82.6670,-9.874,1111122 
COMPS,ioos:station:USF.COMPS:ARP:1,2017-03-04T22:06:00Z,28.4330,-82.6670,-9.879,1111122 
COMPS,ioos:station:USF.COMPS:ARP:1,2017-03-04T22:12:00Z,28.4330,-82.6670,-9.883,1111122 
COMPS,ioos:station:USF.COMPS:ARP:1,2017-03-04T22:18:00Z,28.4330,-82.6670,-9.892,1111122 
COMPS,ioos:station:USF.COMPS:ARP:1,2017-03-04T22:24:00Z,28.4330,-82.6670,-9.898,1111122 
COMPS,ioos:station:USF.COMPS:ARP:1,2017-03-04T22:30:00Z,28.4330,-82.6670,-9.903,1111122 
COMPS,ioos:station:USF.COMPS:ARP:1,2017-03-04T22:36:00Z,28.4330,-82.6670,-9.918,1111122 
COMPS,ioos:station:USF.COMPS:ARP:1,2017-03-04T22:42:00Z,28.4330,-82.6670,-9.93,1111122 
COMPS,ioos:station:USF.COMPS:ARP:1,2017-03-04T22:48:00Z,28.4330,-82.6670,-9.945,1111122 
COMPS,ioos:station:USF.COMPS:ARP:1,2017-03-04T22:54:00Z,28.4330,-82.6670,-9.954,1111122 
COMPS,ioos:station:USF.COMPS:ARP:1,2017-03-04T23:00:00Z,28.4330,-82.6670,-9.965,1111122 
COMPS,ioos:station:USF.COMPS:ARP:1,2017-03-04T23:06:00Z,28.4330,-82.6670,-9.976,1111122 